Location: Cold Norton
(51.6667°N, 0.6667°E)
Time: 16:39:17
(UTC+00:00)

Cosmos 2369 Rocket - Pass Details

Date: 18 November 2025
Orbit: 826 x 853 km, 71.0° (Epoch: 09 December)

Event Time Altitude Azimuth Distance (km) Brightness Sun altitude
Rises 19:28:50 0° 201° (SSW) 3,360 5.5 -31.5°
Reaches altitude 10° 19:31:15 10° 200° (SSW) 2,434 4.7 -31.9°
Enters shadow 19:32:03 15° 199° (SSW) 2,129 4.3 -32.0°
